Tracking 20623 objects as of 3-Apr-2020
HD Live streaming from Space Station
objects crossing your sky now

SL-6 R/B(2)

Track SL-6 R/B(2) now!
10-day predictions


NORAD ID: 12827
Int'l Code: 1981-088F
Perigee: 994.5 km
Apogee: 13,416.7 km
Inclination: 63.3 °
Period: 262.4 minutes
Semi major axis: 13576 km
RCS: 6.5355 m2 (large)
Launch date: September 11, 1981
Source: Commonwealth of Independent States (former USSR) (CIS)
Launch site: PLESETSK MISSILE AND SPACE COMPLEX (PKMTR)

Note: This is a ROCKET BODY
aabbcc
Your satellite tracking list
Your tracking list is empty




NASA's NSSDC Master Catalog

Two Line Element Set (TLE):
1 12827U 81088F   20093.81157230  .00000014  00000-0  00000+0 0  9990
2 12827  63.2918 118.3616 4574824 207.2191 348.3852  5.48802372772887
Source of the keplerian elements: AFSPC